Date String (YYYY-MM-DD hh:mm:ss) UTC,Instrument flags,absolute air pressure of the measurement (hPa),sample flow rate (lpm),inlet stack bypass flow (lpm),air temperature of the measurement (°C),ambient temperature measured by the external sensor (°C),aerosol sample conditioner tube jacket temperature (°C),OPC LED temperature (°C),internal box temperature (°C),relative humidity of the measurement (%),span deviation,mass concentration of particles derived from Lorenz-Mie calculation of OPC scattering (μg/m³),mass concentration of particles derived from Lorenz-Mie calculation of OPC scattering (μg/m³),mass concentration of particles derived from Lorenz-Mie calculation of OPC scattering (μg/m³)
DateTimeUTC,F1_M11,P_M11,Q1_M11,Q2_M11,T1_M11,T2_M11,T3_M11,T4_M11,T5_M11,U1_M11,ZSPAN_M11,X0_M11,X2_M11,X1_M11
2023-08-26 21:00:00,SystemResetWarning,0837.7,4.99,000.00,029.7,026.7,000.0,037.7,030.3,33.3,-000.8,0009.61,0006.83,0006.51
2023-08-26 21:01:00,SystemResetWarning,0837.6,4.99,000.00,029.8,026.9,000.0,037.8,030.4,33.3,-000.5,0009.64,0006.85,0006.50
2023-08-26 21:02:00,SystemResetWarning,0837.6,5.01,000.00,029.8,027.1,000.0,037.8,030.4,33.4,-000.4,0009.68,0006.88,0006.52
2023-08-26 21:03:00,SystemResetWarning,0837.6,5.01,000.00,029.8,027.3,000.0,037.8,030.5,33.7,-000.2,0009.75,0006.89,0006.52
2023-08-26 21:04:00,SystemResetWarning,0837.6,4.98,000.00,029.9,026.3,000.0,037.7,030.4,33.4,-000.3,0009.67,0006.84,0006.49
2023-08-26 21:05:00,SystemResetWarning,0837.6,5.00,000.00,029.8,024.8,000.0,037.6,030.1,33.7,-000.2,0009.74,0006.85,0006.47
2023-08-26 21:06:00,SystemResetWarning,0837.6,5.00,000.00,029.7,024.3,000.0,037.5,029.9,34.0,0000.0,0009.98,0006.84,0006.46
2023-08-26 21:07:00,SystemResetWarning,0837.7,5.01,000.00,029.6,024.5,000.0,037.6,029.7,33.6,0000.1,0010.68,0006.80,0006.42
2023-08-26 21:08:00,SystemResetWarning,0837.7,5.00,000.00,029.4,024.9,000.0,037.6,029.8,33.5,0000.1,0010.68,0006.75,0006.36
2023-08-26 21:09:00,SystemResetWarning,0837.6,4.99,000.00,029.4,025.3,000.0,037.6,029.9,33.8,0000.1,0010.73,0006.68,0006.31
2023-08-26 21:10:00,SystemResetWarning,0837.6,5.01,000.00,029.4,025.7,000.0,037.7,030.0,33.8,-000.3,0011.09,0006.64,0006.27
2023-08-26 21:11:00,SystemResetWarning,0837.5,5.01,000.00,029.4,026.1,000.0,037.7,030.1,34.1,-000.7,0011.70,0006.59,0006.23
2023-08-26 21:12:00,SystemResetWarning,0837.5,5.00,000.00,029.4,026.4,000.0,037.7,030.2,34.2,-000.3,0011.62,0006.54,0006.20
2023-08-26 21:13:00,SystemResetWarning,0837.4,5.00,000.00,029.4,026.7,000.0,037.7,030.2,34.0,-000.2,0011.48,0006.45,0006.14
2023-08-26 21:14:00,SystemResetWarning,0837.4,5.00,000.00,029.4,026.9,000.0,037.7,030.3,34.0,0000.2,0011.49,0006.36,0006.08
2023-08-26 21:15:00,SystemResetWarning,0837.3,4.99,000.00,029.4,027.1,000.0,037.7,030.4,34.7,0000.7,0011.76,0006.32,0006.03
2023-08-26 21:16:00,SystemResetWarning,0837.2,5.00,000.00,029.4,026.6,000.0,037.6,030.3,34.6,0001.1,0011.66,0006.30,0006.03
2023-08-26 21:17:00,SystemResetWarning,0837.2,4.99,000.00,029.4,025.0,000.0,037.5,030.1,35.1,0001.0,0011.61,0006.30,0006.03
2023-08-26 21:18:00,SystemResetWarning,0837.2,5.03,000.00,029.5,024.2,000.0,037.3,029.9,34.5,0001.3,0010.95,0006.30,0006.02
2023-08-26 21:19:00,SystemResetWarning,0837.2,4.98,000.00,029.5,024.3,000.0,037.3,029.8,34.4,0002.1,0010.79,0006.28,0006.01
2023-08-26 21:20:00,SystemResetWarning,0837.2,5.02,000.00,029.4,024.7,000.0,037.4,029.8,34.6,0001.8,0010.57,0006.25,0006.00
2023-08-26 21:21:00,SystemResetWarning,0837.2,4.99,000.00,029.4,025.1,000.0,037.4,029.9,35.0,0001.8,0010.17,0006.21,0005.99
2023-08-26 21:22:00,SystemResetWarning,0837.2,5.00,000.00,029.5,025.6,000.0,037.5,030.0,34.4,0001.8,0009.25,0006.21,0005.99
2023-08-26 21:23:00,SystemResetWarning,0837.2,4.99,000.00,029.6,026.0,000.0,037.5,030.1,34.1,0001.8,0009.28,0006.23,0006.00
2023-08-26 21:24:00,SystemResetWarning,0837.2,5.02,000.00,029.6,026.3,000.0,037.5,030.2,33.5,0001.5,0009.27,0006.22,0005.99
2023-08-26 21:25:00,SystemResetWarning,0837.2,5.01,000.00,029.6,026.6,000.0,037.6,030.3,33.7,0001.8,0009.27,0006.24,0006.00
2023-08-26 21:26:00,SystemResetWarning,0837.2,4.99,000.00,029.7,026.8,000.0,037.6,030.3,34.1,0001.8,0008.83,0006.27,0006.02
2023-08-26 21:27:00,SystemResetWarning,0837.2,5.00,000.00,029.7,027.0,000.0,037.7,030.4,34.2,0001.8,0008.74,0006.29,0006.03
2023-08-26 21:28:00,SystemResetWarning,0837.2,5.00,000.00,029.7,026.9,000.0,037.7,030.4,33.8,0002.1,0008.71,0006.28,0006.03
2023-08-26 21:29:00,SystemResetWarning,0837.2,4.99,000.00,029.7,025.4,000.0,037.6,030.1,33.8,0002.0,0008.60,0006.26,0006.04
2023-08-26 21:30:00,SystemResetWarning,0837.2,5.01,000.00,029.6,024.3,000.0,037.4,029.8,33.7,0001.4,0008.57,0006.28,0006.06
2023-08-26 21:31:00,SystemResetWarning,0837.3,5.01,000.00,029.5,024.2,000.0,037.4,029.7,33.9,0001.7,0008.65,0006.32,0006.08
2023-08-26 21:32:00,SystemResetWarning,0837.2,5.00,000.00,029.3,024.6,000.0,037.5,029.7,34.6,0002.0,0008.74,0006.35,0006.09
2023-08-26 21:33:00,SystemResetWarning,0837.2,5.00,000.00,029.3,025.0,000.0,037.5,029.8,34.6,0001.8,0008.73,0006.34,0006.10
2023-08-26 21:34:00,SystemResetWarning,0837.2,4.99,000.00,029.2,025.5,000.0,037.5,029.9,34.9,0001.8,0008.72,0006.32,0006.09
2023-08-26 21:35:00,SystemResetWarning,0837.2,5.02,000.00,029.3,025.9,000.0,037.5,030.0,34.9,0001.8,0008.86,0006.33,0006.10
2023-08-26 21:36:00,SystemResetWarning,0837.2,4.97,000.00,029.4,026.2,000.0,037.5,030.1,34.6,0001.8,0008.88,0006.33,0006.10
2023-08-26 21:37:00,SystemResetWarning,0837.2,5.00,000.00,029.4,026.5,000.0,037.5,030.2,34.7,0001.2,0008.84,0006.30,0006.09
2023-08-26 21:38:00,SystemResetWarning,0837.2,5.03,000.00,029.5,026.8,000.0,037.6,030.3,35.0,0000.5,0008.82,0006.28,0006.08
2023-08-26 21:39:00,SystemResetWarning,0837.2,4.98,000.00,029.6,027.0,000.0,037.6,030.4,34.5,0000.2,0008.79,0006.26,0006.06
2023-08-26 21:40:00,SystemResetWarning,0837.1,5.00,000.00,029.7,026.5,000.0,037.5,030.4,34.0,-000.1,0008.64,0006.25,0006.06
2023-08-26 21:41:00,SystemResetWarning,0837.1,5.00,000.00,029.7,025.0,000.0,037.4,030.1,34.0,0000.2,0008.62,0006.24,0006.05
2023-08-26 21:42:00,SystemResetWarning,0837.0,5.00,000.00,029.7,024.2,000.0,037.4,029.8,33.6,-000.2,0008.60,0006.25,0006.05
2023-08-26 21:43:00,SystemResetWarning,0837.0,5.02,000.00,029.5,024.2,000.0,037.4,029.7,33.9,-000.6,0008.63,0006.27,0006.07
2023-08-26 21:44:00,SystemResetWarning,0837.0,4.99,000.00,029.4,024.6,000.0,037.4,029.7,34.4,-000.9,0008.64,0006.29,0006.08
2023-08-26 21:45:00,SystemResetWarning,0837.0,4.99,000.00,029.4,025.1,000.0,037.5,029.8,34.7,-000.4,0008.65,0006.31,0006.10
2023-08-26 21:46:00,SystemResetWarning,0837.0,5.02,000.00,029.4,025.5,000.0,037.5,029.9,35.0,-000.1,0008.48,0006.32,0006.12
2023-08-26 21:47:00,SystemResetWarning,0837.1,4.98,000.00,029.5,025.9,000.0,037.5,030.1,34.8,-000.3,0008.44,0006.34,0006.13
2023-08-26 21:48:00,SystemResetWarning,0837.0,5.02,000.00,029.6,026.3,000.0,037.6,030.2,34.9,-000.4,0008.42,0006.34,0006.13
2023-08-26 21:49:00,SystemResetWarning,0837.1,4.97,000.00,029.7,026.6,000.0,037.6,030.3,34.7,-000.1,0008.43,0006.35,0006.15
2023-08-26 21:50:00,SystemResetWarning,0837.1,5.01,000.00,029.8,026.8,000.0,037.6,030.3,34.2,-000.5,0008.55,0006.39,0006.16
2023-08-26 21:51:00,SystemResetWarning,0837.1,5.01,000.00,029.8,027.0,000.0,037.7,030.4,34.0,-000.4,0008.66,0006.42,0006.18
2023-08-26 21:52:00,SystemResetWarning,0837.1,5.00,000.00,029.9,027.2,000.0,037.7,030.4,33.8,-000.9,0008.68,0006.44,0006.19
2023-08-26 21:53:00,SystemResetWarning,0837.0,4.98,000.00,029.9,026.3,000.0,037.7,030.4,33.7,-000.9,0008.63,0006.43,0006.21
2023-08-26 21:54:00,SystemResetWarning,0836.9,5.01,000.00,029.9,024.7,000.0,037.5,030.0,33.8,-001.0,0008.68,0006.43,0006.22
2023-08-26 21:55:00,SystemResetWarning,0836.9,5.01,000.00,029.8,024.1,000.0,037.5,029.8,33.9,-000.8,0008.71,0006.43,0006.22
2023-08-26 21:56:00,SystemResetWarning,0837.0,5.01,000.00,029.6,024.3,000.0,037.5,029.7,34.0,-001.0,0008.70,0006.42,0006.22
2023-08-26 21:57:00,SystemResetWarning,0837.0,5.00,000.00,029.5,024.7,000.0,037.6,029.7,34.7,-000.8,0008.76,0006.44,0006.22
2023-08-26 21:58:00,SystemResetWarning,0836.8,4.99,000.00,029.5,025.1,000.0,037.6,029.8,35.1,0000.0,0008.80,0006.43,0006.20
2023-08-26 21:59:00,SystemResetWarning,0836.9,5.02,000.00,029.7,025.6,000.0,037.6,030.1,34.9,0000.0,0008.85,0006.44,0006.20
